[[{"header":{"parameterUnit":"m.s-1","parameterCategory":1,"la1":30.2991,"la2":30.254,"lo1":-89.0895,"lo2":-89.0444,"dy":0.0017,"dx":0.0017,"nx":28,"ny":28,"refTime":"2025-08-03T21:00:00:Z","depth":0,"parameterNumber":2,"parameterNumberName":"U-component_of_WINDS"},"data":[0,0,0,0,0,0,0,0,0,0,0,0,0,0,0,0,0,0,0,0,0,0,0,0,0,0,0,0,0,0,0,0,0,0,0,0,0,0,0,0,0,0,0,0,0,0,0,0,0,0,0,0,0,0,0,0,0,0,0.5432,0.5431,0,0.5337,0.5336,0.5335,0.5332,0.5333,0.5335,0.5336,0.523,0.5226,0.5222,0,0,0,0,0,0,0,0,0,0,0,0,0,0.5606,0.5603,0.5433,0.5431,0.543,0.5337,0.5336,0.5334,0.5332,0.5333,0.5335,0.5336,0.5231,0.5227,0.5222,0,0,0,0,0,0,0,0,0,0,0,0,0,0.5523,0.5602,0.5433,0.5418,0.5416,0.5337,0.5336,0.5334,0.5332,0.5334,0.5335,0.5337,0.5233,0.5227,0.5221,0.5149,0,0,0.5203,0.5201,0,0,0,0,0,0,0,0,0.5527,0.5516,0.5421,0.5419,0.5416,0.5349,0.5358,0.5272,0.5331,0.5363,0.5336,0.5338,0.5267,0.5259,0.5237,0.5144,0.5139,0.5203,0.5199,0.5196,0.5195,0,0,0,0,0,0,0,0.5533,0.552,0.5394,0.542,0.5417,0.5414,0.5404,0.5342,0.5306,0.5361,0.536,0.5349,0.5266,0.5242,0.5234,0.5138,0.5203,0.5197,0.5194,0.5192,0.4979,0.4977,0,0,0,0,0,0,0.5543,0.5525,0.5398,0.5392,0.5478,0.5409,0.5398,0.5368,0.5307,0.5299,0.5348,0.535,0.5251,0.5241,0.523,0.514,0.5196,0.5191,0.5188,0.4981,0.4979,0.4977,0,0,0,0,0,0,0.5547,0.5532,0.5401,0.5458,0.5442,0.5404,0.5371,0.5365,0.5342,0.5297,0.529,0.533,0.5252,0.5239,0.5169,0.5136,0.5188,0.5183,0.4984,0.4981,0.4978,0.4959,0,0,0,0,0,0,0.5552,0.5533,0.5506,0.5458,0.5439,0.5344,0.5369,0.5362,0.5332,0.5334,0.5279,0.5272,0.5253,0.5178,0.5163,0.5129,0.5178,0.4986,0.4982,0.4979,0.4963,0.4956,0.495,0,0,0,0,0,0.5558,0.5504,0.5505,0.549,0.5405,0.5342,0.5331,0.5312,0.533,0.5301,0.5273,0.5273,0.5143,0.5171,0.5154,0.5118,0.4988,0.4983,0.4979,0.4965,0.4957,0.495,0,0,0,0,0,0,0.5546,0.5497,0.5498,0.5427,0.5389,0.5342,0.5305,0.5304,0.5259,0.5261,0.5239,0.5226,0.5157,0.5131,0.5163,0.5044,0.5067,0.5059,0.5063,0.5055,0.5049,0.5055,0.5173,0,0,0,0,0,0.5536,0.5491,0.545,0.5391,0.5372,0.5343,0.5314,0.5304,0.5262,0.5245,0.5212,0.517,0.5119,0.5086,0.5037,0.496,0.4947,0.4927,0.4921,0.4916,0.4908,0.4863,0.4853,0.4961,0.4961,0.4961,0,0,0.5513,0.5481,0.5453,0.5388,0.5357,0.5309,0.5329,0.5277,0.524,0.5237,0.5169,0.5144,0.5095,0.5021,0.4987,0.4997,0.4876,0.491,0.4906,0.4901,0.4857,0.4847,0.4838,0.4958,0.4958,0.4959,0,0,0.5445,0.5418,0.5365,0.5335,0.529,0.5271,0.5258,0.5212,0.5195,0.5128,0.5125,0.508,0.4994,0.4959,0.493,0.4852,0.4849,0.4837,0.4802,0.4759,0.4751,0.4743,0.4712,0.4702,0.4829,0.4829,0.4829,0,0.5421,0.5351,0.5338,0.5286,0.5256,0.5255,0.52,0.5171,0.5111,0.5089,0.5103,0.4995,0.4962,0.4879,0.4861,0.4838,0.4821,0.4841,0.4754,0.4746,0.4738,0.4709,0.4698,0.4828,0.4828,0.4828,0.4828,0,0.5323,0.5274,0.5236,0.5181,0.5148,0.5095,0.5071,0.5039,0.5032,0.5011,0.4942,0.4903,0.4846,0.4827,0.4818,0.4742,0.475,0.4759,0.4781,0.4727,0.4698,0.4687,0.4826,0.4826,0.4827,0.4827,0,0,0.5241,0.5182,0.5168,0.5142,0.5094,0.5054,0.5001,0.4948,0.4919,0.4879,0.4831,0.476,0.4768,0.4735,0.4724,0.4687,0.4624,0.47,0.4698,0.4685,0.4535,0.4526,0.4513,0.4624,0.4622,0.462,0.4538,0,0.5166,0.5073,0.5061,0.4977,0.4931,0.493,0.4883,0.4847,0.4827,0.4782,0.4759,0.4708,0.4724,0.4704,0.4668,0.464,0.4593,0.4646,0.4576,0.4574,0.4585,0.4499,0.4489,0.4413,0.4527,0.4526,0.4524,0,0.5065,0.5024,0.4937,0.4895,0.4875,0.4833,0.4783,0.4743,0.4701,0.4689,0.4653,0.4647,0.4589,0.4618,0.4536,0.4572,0.4543,0.4525,0.4522,0.4511,0.4543,0.4482,0.4388,0.4375,0.4507,0.4509,0.451,0,0.5011,0.4934,0.4872,0.4851,0.4801,0.4771,0.4748,0.4709,0.4678,0.4634,0.4614,0.4563,0.4534,0.4494,0.4473,0.4497,0.4392,0.442,0.4377,0.4378,0.4352,0.4353,0.4248,0.434,0.434,0.434,0.434,0,0.4926,0.4871,0.4847,0.4808,0.4747,0.4733,0.4672,0.465,0.4615,0.457,0.4568,0.4525,0.4502,0.4455,0.4439,0.4372,0.436,0.4346,0.4341,0.4344,0.4345,0.4322,0.4325,0.4337,0.4338,0.4338,0.4339,0,0.4852,0.4835,0.4766,0.4726,0.4714,0.4671,0.4635,0.4596,0.4578,0.4521,0.4506,0.4476,0.4421,0.4398,0.433,0.4319,0.4241,0.4243,0.4256,0.4253,0.4211,0.4214,0.4084,0.4065,0.4173,0.4172,0.4172,0,0.4798,0.4756,0.4712,0.4684,0.4661,0.4614,0.4583,0.4569,0.4536,0.4487,0.4453,0.44,0.4355,0.4267,0.4237,0.4185,0.4182,0.4141,0.4174,0.4178,0.4177,0.4179,0.4173,0.4133,0.4132,0.4131,0.413,0,0.4701,0.4695,0.4652,0.4606,0.457,0.4532,0.4495,0.4471,0.4451,0.4414,0.436,0.4326,0.4258,0.4203,0.415,0.4123,0.4121,0.4121,0.4108,0.4108,0.4116,0.4108,0.4235,0.4123,0.4123,0.4124,0.4124,0.4125,0.4632,0.4595,0.4559,0.4511,0.4483,0.4449,0.441,0.4389,0.4344,0.4289,0.4283,0.4224,0.4183,0.4112,0.4084,0.4036,0.4046,0.4028,0.4022,0.4017,0.4013,0.4128,0.4027,0.4027,0.4027,0.4027,0.4027,0,0.4532,0.451,0.4467,0.4417,0.4379,0.4386,0.4346,0.4312,0.4261,0.4225,0.4183,0.412,0.4067,0.4035,0.3982,0.3949,0.3947,0.3935,0.3935,0.3929,0.4008,0.4024,0.3938,0.3938,0.3938,0.3938,0.3938,0.3938,0.4476,0.4413,0.4403,0.4325,0.4303,0.4247,0.4223,0.4191,0.4162,0.4093,0.405,0.4031,0.3995,0.394,0.3891,0.3883,0.3862,0.3849,0.384,0.3914,0.3923,0.3932,0.3946,0.3845,0.3845,0.3764,0.3764,0.3763]},{"header":{"parameterUnit":"m.s-1","parameterCategory":1,"la1":30.2991,"la2":30.254,"lo1":-89.0895,"lo2":-89.0444,"dy":0.0017,"dx":0.0017,"nx":28,"ny":28,"refTime":"2025-08-03T21:00:00:Z","depth":0,"parameterNumber":3,"parameterNumberName":"V-component_of_WINDS"},"data":[0,0,0,0,0,0,0,0,0,0,0,0,0,0,0,0,0,0,0,0,0,0,0,0,0,0,0,0,0,0,0,0,0,0,0,0,0,0,0,0,0,0,0,0,0,0,0,0,0,0,0,0,0,0,0,0,0,0,-2.4916,-2.4917,0,-2.4972,-2.4973,-2.4973,-2.4936,-2.4935,-2.4933,-2.4931,-2.4988,-2.4991,-2.4994,0,0,0,0,0,0,0,0,0,0,0,0,0,-2.4776,-2.4779,-2.4916,-2.4917,-2.4917,-2.4972,-2.4973,-2.4974,-2.4937,-2.4934,-2.4932,-2.493,-2.4987,-2.4991,-2.4995,0,0,0,0,0,0,0,0,0,0,0,0,0,-2.4835,-2.478,-2.4916,-2.4905,-2.4905,-2.4972,-2.4973,-2.4974,-2.4937,-2.4934,-2.4932,-2.4929,-2.4986,-2.4991,-2.4995,-2.5075,0,0,-2.5009,-2.5011,0,0,0,0,0,0,0,0,-2.4832,-2.484,-2.4906,-2.4906,-2.4906,-2.4945,-2.4944,-2.5008,-2.4938,-2.4925,-2.4931,-2.4928,-2.4976,-2.4981,-2.4997,-2.5078,-2.508,-2.501,-2.5013,-2.5015,-2.5016,0,0,0,0,0,0,0,-2.4828,-2.4838,-2.4938,-2.4907,-2.4907,-2.4898,-2.4903,-2.4956,-2.4964,-2.4926,-2.4923,-2.493,-2.4975,-2.4993,-2.4998,-2.5081,-2.501,-2.5014,-2.5017,-2.5019,-2.523,-2.5233,0,0,0,0,0,0,-2.4825,-2.4834,-2.4936,-2.494,-2.4862,-2.4902,-2.4909,-2.4935,-2.4963,-2.4965,-2.4933,-2.4928,-2.4986,-2.4993,-2.5,-2.5096,-2.5015,-2.5019,-2.5022,-2.5227,-2.5231,-2.5234,0,0,0,0,0,0,-2.4822,-2.4834,-2.4934,-2.4886,-2.4899,-2.4908,-2.4937,-2.4937,-2.4955,-2.4968,-2.497,-2.4949,-2.4984,-2.4994,-2.5057,-2.5097,-2.5021,-2.5025,-2.5224,-2.5228,-2.5232,-2.5288,0,0,0,0,0,0,-2.4818,-2.4833,-2.4864,-2.4887,-2.4901,-2.499,-2.494,-2.494,-2.4963,-2.4958,-2.4984,-2.4986,-2.4983,-2.505,-2.5062,-2.5102,-2.5029,-2.522,-2.5226,-2.5231,-2.5282,-2.5293,-2.5303,0,0,0,0,0,-2.4813,-2.4877,-2.4866,-2.4878,-2.494,-2.4993,-2.5,-2.4996,-2.4966,-2.4997,-2.5006,-2.4985,-2.5091,-2.5057,-2.5069,-2.5112,-2.5218,-2.5224,-2.5231,-2.5278,-2.5291,-2.5303,0,0,0,0,0,0,-2.4858,-2.488,-2.4868,-2.4941,-2.4965,-2.4986,-2.5025,-2.501,-2.5043,-2.5037,-2.503,-2.5036,-2.5102,-2.5113,-2.5075,-2.5191,-2.515,-2.5159,-2.5181,-2.5194,-2.5204,-2.52,-2.5033,0,0,0,0,0,-2.4877,-2.4918,-2.4935,-2.4998,-2.5011,-2.5016,-2.5039,-2.5033,-2.5058,-2.5068,-2.5081,-2.5105,-2.5144,-2.517,-2.5206,-2.5284,-2.5289,-2.5319,-2.533,-2.5338,-2.5346,-2.5388,-2.5402,-2.5255,-2.5255,-2.5254,0,0,-2.4916,-2.4933,-2.4959,-2.5008,-2.5026,-2.5069,-2.5025,-2.5072,-2.5104,-2.5075,-2.5135,-2.5146,-2.5173,-2.5244,-2.5276,-2.5255,-2.5388,-2.5346,-2.5352,-2.5356,-2.5396,-2.541,-2.5422,-2.5259,-2.5258,-2.5257,0,0,-2.5008,-2.5025,-2.508,-2.5099,-2.5127,-2.5129,-2.5143,-2.5166,-2.5172,-2.5233,-2.5212,-2.5249,-2.5316,-2.5336,-2.5355,-2.5455,-2.5437,-2.5467,-2.552,-2.5561,-2.5573,-2.5583,-2.5619,-2.5632,-2.5475,-2.5475,-2.5475,0,-2.5053,-2.5117,-2.511,-2.5159,-2.5181,-2.5157,-2.5212,-2.5231,-2.5269,-2.5285,-2.5261,-2.5344,-2.5361,-2.5436,-2.546,-2.5476,-2.5491,-2.5464,-2.5572,-2.5582,-2.5591,-2.5625,-2.5639,-2.5478,-2.5478,-2.5477,-2.5477,0,-2.517,-2.5215,-2.5256,-2.5293,-2.532,-2.5372,-2.5373,-2.5401,-2.5392,-2.5398,-2.546,-2.5478,-2.5518,-2.5535,-2.5528,-2.561,-2.5596,-2.5572,-2.5531,-2.5609,-2.5641,-2.5654,-2.5483,-2.5482,-2.5481,-2.548,0,0,-2.5294,-2.5327,-2.5342,-2.5359,-2.5387,-2.5422,-2.5472,-2.5511,-2.5535,-2.5562,-2.5604,-2.5661,-2.5639,-2.5661,-2.5655,-2.5691,-2.5769,-2.5663,-2.5663,-2.5682,-2.586,-2.5878,-2.5894,-2.5757,-2.576,-2.5762,-2.5858,0,-2.5388,-2.5477,-2.5472,-2.5555,-2.5596,-2.5573,-2.5617,-2.564,-2.5646,-2.5681,-2.5688,-2.5728,-2.5696,-2.5709,-2.5744,-2.5752,-2.5805,-2.5745,-2.5797,-2.5799,-2.5791,-2.591,-2.5929,-2.602,-2.5871,-2.5873,-2.5874,0,-2.551,-2.5542,-2.5629,-2.5651,-2.5668,-2.5708,-2.5743,-2.5777,-2.5802,-2.5804,-2.5828,-2.5816,-2.5867,-2.5824,-2.5894,-2.5854,-2.5874,-2.5882,-2.5885,-2.589,-2.5841,-2.5919,-2.6048,-2.6062,-2.5894,-2.5892,-2.5891,0,-2.5592,-2.5656,-2.5716,-2.5731,-2.5759,-2.5787,-2.58,-2.5822,-2.5846,-2.5876,-2.5891,-2.5927,-2.5947,-2.5976,-2.5974,-2.5943,-2.6045,-2.6002,-2.6048,-2.6048,-2.6071,-2.607,-2.6206,-2.6084,-2.6084,-2.6084,-2.6083,0,-2.5698,-2.5753,-2.5753,-2.579,-2.585,-2.5844,-2.5904,-2.5913,-2.5933,-2.5972,-2.5954,-2.599,-2.5986,-2.6023,-2.6022,-2.608,-2.6089,-2.6092,-2.6091,-2.6094,-2.6093,-2.6107,-2.6101,-2.6087,-2.6086,-2.6086,-2.6085,0,-2.58,-2.5802,-2.5867,-2.5887,-2.5894,-2.5937,-2.5955,-2.599,-2.5994,-2.6043,-2.6054,-2.6061,-2.6103,-2.6105,-2.6153,-2.6152,-2.6223,-2.6215,-2.6215,-2.6214,-2.626,-2.6256,-2.6411,-2.643,-2.6295,-2.6297,-2.6298,0,-2.5868,-2.5909,-2.5934,-2.5958,-2.5973,-2.6013,-2.6037,-2.6032,-2.6058,-2.6089,-2.612,-2.6161,-2.6193,-2.6261,-2.6271,-2.6307,-2.63,-2.6352,-2.6306,-2.6307,-2.6301,-2.6299,-2.6303,-2.6361,-2.6363,-2.6364,-2.6365,0,-2.5988,-2.5987,-2.6022,-2.6058,-2.6087,-2.6115,-2.6141,-2.6162,-2.616,-2.619,-2.6233,-2.6258,-2.6307,-2.6348,-2.6383,-2.6396,-2.6381,-2.6379,-2.6392,-2.6395,-2.6393,-2.6395,-2.624,-2.6376,-2.6375,-2.6374,-2.6373,-2.6373,-2.6075,-2.611,-2.6133,-2.6173,-2.6192,-2.6216,-2.625,-2.6259,-2.6295,-2.6335,-2.633,-2.6378,-2.6401,-2.6447,-2.6463,-2.65,-2.6482,-2.6501,-2.6505,-2.651,-2.6515,-2.6387,-2.6507,-2.6506,-2.6506,-2.6506,-2.6505,0,-2.6194,-2.6208,-2.6244,-2.6281,-2.6312,-2.6295,-2.6322,-2.6349,-2.6392,-2.6415,-2.6447,-2.6496,-2.6535,-2.6547,-2.6585,-2.6613,-2.6606,-2.6623,-2.6621,-2.6624,-2.6529,-2.6514,-2.6627,-2.6627,-2.6627,-2.6627,-2.6627,-2.6627,-2.626,-2.6319,-2.6321,-2.6389,-2.6402,-2.6449,-2.6466,-2.6489,-2.6507,-2.6563,-2.6595,-2.6603,-2.6621,-2.666,-2.6695,-2.6698,-2.6713,-2.6732,-2.6732,-2.6643,-2.6631,-2.6619,-2.6605,-2.6735,-2.6736,-2.6824,-2.6825,-2.6825]}]]